Location: Praha
(50.0830°N, 14.4670°E)
Time: 11:36:48
(UTC+02:00)

ISS - Pass Details

Date: 05 May 2025
Orbit: 416 x 419 km, 51.6° (Epoch: 18 May)

Event Time Altitude Azimuth Distance (km) Brightness Sun altitude
Exits shadow 02:15:19 64° 34° (NE) 468 -3.4 -21.5°
Drops below altitude 10° 02:18:21 10° 77° (ENE) 1,496 -0.5 -21.4°
Sets 02:20:28 0° 80° (E) 2,360 0.5 -21.2°
